Regional Weather Roundup
Issued by NWS

Home | Current Version | Previous Version | Graphics & Text | Print | Product List | Glossary On
Versions: 1 2 3 4 5 6 7 8 9 10 11 12 13 14 15 16 17 18 19 20 21 22 23 24 25 26 27 28 29 30 31 32 33 34 35 36 37 38 39 40 41 42 43 44 45 46 47 48 49 50
000
ASUS43 KIND 221859
RWRIN

WEATHER ROUNDUP FOR INDIANA
NATIONAL WEATHER SERVICE INDIANAPOLIS IN
300 PM EDT MON MAY 22 2017

NOTE: "FAIR" INDICATES FEW OR NO CLOUDS BELOW 12,000 FEET WITH NO
SIGNIFICANT WEATHER AND/OR OBSTRUCTIONS TO VISIBILITY.

* - STATION DOES NOT REPORT WEATHER SUCH AS PRECIPITATION OR FOG.

+ - STATION NOT QUALITY CONTROLLED BY THE NATIONAL WEATHER SERVICE.
    USE DATA WITH CAUTION...ESPECIALLY DEWPOINT AND RELATIVE
    HUMIDITY OBSERVATIONS.

INZ001>003-010>013-019-020-222000-
NORTHWEST INDIANA

CITY           SKY/WX    TMP DP  RH WIND       PRES   REMARKS
GARY /AIRPORT/ MOSUNNY   73  39  29 W16       29.98F
MICHIGAN CITY+ MOSUNNY   70  45  40 SW12G18   29.99F
MONTICELLO +   SUNNY     68  46  44 SW12      30.02F
RENSSELAER +   SUNNY     70  37  30 S15       30.01F

$$

LMZ046-743>745-222000-
SOUTHERN LAKE MICHIGAN

STATION/POSITION TIME  TEMP    WIND        PRES    WAVE
                       AIR SEA DIR/SP/G            HT
                 (UTC) (F)     (DEG/KT/KT) (MB)    (FT)
BURNS HARBOR     1840   67     200/ 12/ 21 1015.6F
MICHIGAN CITY    1830   65     190/ 14/ 17   N/A
5NW MICH CITY    1850   59 54  220/  8/ 10   N/A     1

$$

INZ004-005-014>016-021>024-222000-
NORTH CENTRAL INDIANA

CITY           SKY/WX    TMP DP  RH WIND       PRES   REMARKS
ELKHART        SUNNY     68  46  45 SW14G20   30.00F
GOSHEN         SUNNY     67  47  48 SW15      30.01F
PERU/GRISSOM   SUNNY     67  50  53 SW10      30.03F
SOUTH BEND     SUNNY     68  47  46 SW13G26   30.00F

$$

INZ006>009-017-018-025>027-222000-
NORTHEAST INDIANA

CITY           SKY/WX    TMP DP  RH WIND       PRES   REMARKS
ANGOLA *+      MOSUNNY   66  59  77 W13       30.01S
FORT WAYNE     MOSUNNY   68  50  52 W13       30.04F
KENDALLVILLE + SUNNY     67  47  48 W14G21    30.03S

$$

INZ028-029-035-036-043>045-051>053-222000-
WEST CENTRAL INDIANA

CITY           SKY/WX    TMP DP  RH WIND       PRES   REMARKS
GREENCASTLE +  SUNNY     68  43  40 SW3       30.07F
LAFAYETTE      SUNNY     69  49  48 SW8       30.03F
TERRE HAUTE    SUNNY     71  46  40 S9        30.06F

$$

INZ030>032-037>040-046>048-054>057-064-065-222000-
CENTRAL INDIANA

CITY           SKY/WX    TMP DP  RH WIND       PRES   REMARKS
CP ATTERBURY + SUNNY     70  43  37 SE6       30.08F
COLUMBUS       PTSUNNY   68  36  30 E3        30.08F
INDIANAPOLIS   PTSUNNY   68  44  42 SW8       30.07F
-EAGLE CREEK   SUNNY     69  45  41 SW7       30.06F
KOKOMO +       SUNNY     67  47  48 SW7       30.06F
SHELBYVILLE    SUNNY     70  45  40 SW9       30.07F

$$

INZ033-034-041-042-049-050-058-059-222000-
EAST CENTRAL INDIANA

CITY           SKY/WX    TMP DP  RH WIND       PRES   REMARKS
MUNCIE         SUNNY     68  45  43 MISG      30.07F
RICHMOND +     CLOUDY    64  45  48 S6        30.09F

$$

INZ060-061-067>069-081>083-085>088-222000-
SOUTHWEST INDIANA

CITY           SKY/WX    TMP DP  RH WIND       PRES   REMARKS
EVANSVILLE     MOSUNNY   73  45  36 E12       30.08F
HUNTINGBURG *+ MOSUNNY   70  52  52 VRB6      30.09F

$$

INZ062-063-066-070>080-084-089>092-222000-
SOUTH CENTRAL AND SOUTHEAST INDIANA

CITY           SKY/WX    TMP DP  RH WIND       PRES   REMARKS
BLOOMINGTON    CLOUDY    70  41  34 CALM      30.08F
MADISON *+     CLOUDY    68  39  34 N3        30.12F
SEYMOUR +      PTSUNNY   70  46  43 S5        30.09F

$$





USA.gov is the U.S. government's official web portal to all federal, state and local government web resources and services.